Wind_Speed
23 24 24 28 27 25 26 25 27 29 27 29 24 19 16 12 12 8 14 12 15 15 10 5 2 1 4 11 13 15 15 16 18 21 24 27 29 30 32 33 33 34 34 35
25 24 27 30 30 28 27 23 25 26 27 28 25 22 23 16 16 11 15 15 13 13 15 8 5 8 9 14 19 20 20 20 22 24 27 31 32 32 33 33 34 35 36 36
27 28 31 32 32 32 30 28 31 32 31 31 30 29 27 24 19 12 15 13 8 15 12 13 9 11 14 18 21 21 21 18 20 27 30 33 33 34 34 34 35 36 37 37
30 32 36 36 35 34 31 31 32 34 36 36 35 34 25 20 17 15 15 17 14 9 15 14 12 17 16 18 22 23 23 26 26 31 34 33 33 35 36 37 38 39 40 40
30 32 35 33 32 36 32 36 35 35 39 40 36 36 28 23 22 18 21 25 20 15 13 16 19 15 24 20 23 23 25 24 28 34 35 34 33 34 35 37 39 40 41 41
28 28 27 30 34 36 33 34 35 38 40 42 37 38 33 28 27 27 25 24 24 20 20 18 20 25 25 23 28 27 25 24 32 36 38 38 35 34 36 38 40 40 41 40
25 25 23 24 28 31 29 27 32 35 37 37 36 39 35 33 34 34 35 30 29 26 24 21 26 27 28 31 34 33 17 27 37 38 40 36 35 35 37 38 38 39 39 40
26 26 21 25 28 30 29 28 31 31 33 31 34 35 36 36 39 38 37 40 43 34 26 25 28 29 36 33 36 21 27 37 39 40 36 31 32 34 36 38 39 39 38 39
27 24 26 28 30 31 29 29 26 28 27 27 27 29 27 28 30 31 34 36 39 35 29 31 33 33 32 30 40 29 33 43 47 43 37 36 35 35 36 39 38 38 39 40
27 25 28 31 34 33 30 28 28 29 29 30 29 27 24 25 27 28 28 31 31 31 30 30 31 31 29 36 36 36 39 40 43 41 41 37 39 38 39 40 40 39 40 39
27 29 29 32 35 34 31 30 30 30 31 31 30 24 15 21 23 26 28 29 28 29 28 25 26 27 30 31 35 38 34 36 41 43 40 37 36 38 40 42 39 42 39 40
29 30 27 32 34 37 35 33 32 34 33 32 31 28 19 22 23 23 25 26 27 27 28 28 30 33 32 29 29 29 30 29 32 35 36 38 40 40 43 42 43 41 40 45
31 33 30 26 30 35 37 36 34 34 34 34 33 27 20 23 21 22 25 26 26 27 28 29 27 24 23 23 29 31 34 33 34 33 34 35 36 39 40 42 39 42 45 51
35 35 36 34 28 30 34 37 39 36 35 35 34 28 25 25 24 26 26 27 29 30 31 28 31 31 31 29 32 36 39 39 40 39 38 35 36 40 42 42 42 43 49 49
41 43 40 38 35 33 35 35 36 39 40 39 32 32 31 27 29 33 34 32 33 34 35 34 37 38 38 34 37 41 42 44 45 43 41 37 40 43 46 41 45 51 51 50
45 47 47 46 43 41 39 39 40 40 39 38 36 37 31 36 38 37 39 39 38 38 41 40 40 42 38 38 42 45 46 47 44 45 39 39 41 46 46 45 50 51 49 50
46 47 49 50 49 48 49 44 43 45 45 43 43 40 42 39 41 43 44 45 45 44 42 43 42 42 43 43 46 45 49 47 47 41 42 43 45 48 45 46 53 50 49 50
49 47 48 52 49 55 51 49 49 50 49 47 47 50 50 48 47 46 47 46 47 47 47 46 45 44 45 48 48 46 51 48 45 43 45 46 46 45 47 48 49 50 49 51
51 49 50 53 54 55 55 54 50 51 50 50 52 48 48 50 51 50 49 51 52 52 50 49 48 47 45 46 45 47 47 47 48 49 47 46 44 46 47 48 49 49 50 53
53 51 52 55 58 60 56 52 52 55 59 50 47 47 48 48 50 48 50 50 52 50 45 45 44 47 47 45 46 49 47 46 48 48 45 44 41 44 46 47 48 48 51 51
54 55 54 54 58 59 57 56 52 56 54 51 52 51 51 50 49 48 48 49 48 48 46 47 47 46 43 44 46 45 44 45 46 43 37 39 42 42 42 45 46 49 50 47
56 55 54 54 56 60 56 57 56 56 57 55 55 55 55 49 46 41 40 44 48 48 48 47 44 40 40 42 43 45 46 45 39 39 36 38 38 40 42 44 47 48 44 44
58 54 53 53 53 56 58 57 57 58 57 56 55 54 52 49 46 43 40 41 43 45 43 43 43 45 40 38 33 42 42 43 39 34 36 36 38 41 41 45 47 43 41 40
56 55 54 53 54 55 56 58 59 58 57 56 56 56 53 51 48 46 45 45 42 44 44 45 42 42 43 45 45 39 38 41 40 36 36 34 37 39 41 43 43 39 37 34
57 57 56 55 55 57 58 58 58 58 58 59 59 57 55 54 51 47 44 45 42 42 39 38 37 37 39 38 44 39 42 49 37 30 30 34 35 38 39 39 36 35 33 30
58 57 57 56 57 58 55 54 56 57 58 58 58 59 59 57 53 51 46 44 42 40 37 32 32 35 37 38 46 44 42 32 29 29 29 31 36 36 34 32 33 31 29 30
Wind_Direction
227 229 234 240 230 235 246 257 266 263 266 267 274 268 269 245 257 292 297 315 315 292 292 358 26 116 46 359 355 352 336 324 319 318 314 311 306 308 310 310 309 307 306 306
227 226 228 238 242 238 235 248 257 257 257 261 265 276 264 244 242 241 277 311 309 281 288 299 325 303 324 340 342 348 341 328 323 316 315 312 311 310 308 306 305 304 304 304
222 222 224 232 238 241 240 242 247 250 245 245 255 266 273 274 255 251 269 294 301 279 283 286 277 321 330 329 327 335 336 333 330 323 319 312 311 308 306 305 303 303 303 304
223 225 229 230 234 240 241 243 243 246 245 246 257 263 265 254 252 261 277 292 279 293 270 276 277 300 301 306 312 313 321 319 318 322 318 310 305 303 302 301 301 302 303 304
233 231 232 237 240 243 240 237 242 241 248 256 263 265 270 262 265 274 280 284 278 270 259 264 277 273 295 287 293 297 305 313 313 311 313 311 304 301 300 300 302 304 303 304
239 237 234 235 239 245 245 242 244 246 249 257 262 263 268 270 274 276 277 281 301 283 279 254 267 275 277 286 278 282 287 310 306 310 313 311 306 302 301 301 301 300 302 304
246 246 236 237 242 245 247 245 250 254 256 260 260 263 272 272 273 275 279 284 289 280 284 268 255 262 268 264 267 267 312 302 306 313 312 308 303 302 303 303 305 308 309 309
231 234 232 237 242 243 244 241 243 250 255 260 257 257 262 263 267 271 277 280 283 279 274 268 265 263 255 258 273 326 310 299 308 309 308 305 301 299 302 303 305 307 307 308
234 233 234 236 241 244 245 246 247 254 258 258 259 264 266 264 266 268 270 270 272 276 282 271 280 276 275 285 285 305 299 303 306 303 300 304 304 302 300 301 303 302 302 303
242 232 227 233 242 245 248 248 247 254 262 268 269 266 269 268 268 269 269 265 264 265 262 266 270 276 282 286 296 308 308 305 303 302 300 302 303 304 304 304 304 305 306 306
251 244 230 230 238 245 252 255 257 263 271 273 274 274 269 267 274 275 275 271 270 272 276 278 278 285 287 289 299 299 297 295 300 301 300 307 304 301 302 304 301 304 310 314
260 259 237 239 236 240 248 253 250 257 266 269 271 270 279 277 279 284 290 288 281 280 279 278 280 287 293 291 291 301 302 310 310 307 302 303 303 302 304 305 306 302 307 318
261 264 264 251 245 249 249 256 262 263 268 271 276 281 277 277 282 286 287 290 288 286 291 290 291 293 295 285 288 299 303 311 312 316 307 301 301 303 305 304 303 302 305 313
260 260 264 263 254 248 250 256 258 259 262 268 270 281 284 286 289 284 277 276 281 281 286 292 295 296 297 292 292 301 305 310 311 311 310 302 299 303 306 306 302 305 306 308
262 265 264 261 260 254 252 254 257 259 264 271 281 280 290 292 289 286 284 288 288 286 284 286 288 292 294 296 293 300 302 306 308 307 304 299 301 302 305 301 300 307 309 308
257 262 266 265 263 262 254 257 259 259 262 268 273 273 283 281 280 283 287 286 283 283 284 282 283 286 291 291 291 298 299 301 300 300 297 300 301 305 302 295 306 306 306 307
255 256 259 264 265 264 261 258 264 269 271 274 272 276 273 274 276 277 278 279 282 285 285 282 280 283 287 290 290 297 296 297 298 293 299 299 302 303 295 298 303 306 308 306
255 254 256 261 261 260 261 265 264 266 270 274 276 279 281 281 281 280 281 282 282 282 280 279 278 280 284 285 286 288 290 294 291 292 296 300 303 300 304 304 306 308 307 309
254 253 253 255 258 262 260 263 267 267 263 264 265 270 274 276 278 279 282 282 281 280 280 279 279 280 279 281 281 283 286 287 288 291 295 299 300 302 303 305 306 307 310 309
255 253 252 254 256 259 263 263 267 270 269 269 270 268 267 268 270 276 277 278 278 280 282 282 280 277 274 274 279 284 286 286 289 290 294 296 299 299 301 305 307 309 306 307
254 254 253 255 257 260 263 265 265 263 273 271 271 272 273 274 275 275 277 279 282 282 283 284 284 282 279 278 279 278 279 278 281 288 293 297 296 298 303 305 304 303 306 306
254 255 256 255 257 259 265 266 269 270 271 272 273 275 274 274 273 271 270 270 272 274 277 276 277 278 279 282 281 276 276 273 271 284 293 291 296 298 303 302 301 305 305 305
255 255 256 256 258 258 263 266 268 271 273 276 275 273 275 275 277 277 272 270 270 269 269 271 274 278 284 282 286 268 265 269 278 282 284 289 295 297 297 299 303 302 302 304
254 255 254 254 255 260 263 265 268 270 271 272 273 273 274 276 277 277 279 280 276 272 270 270 270 281 279 277 279 270 250 267 273 274 279 288 289 291 298 303 302 303 302 302
255 257 256 256 258 258 258 260 262 263 263 264 268 270 271 272 275 278 277 277 278 278 277 273 278 281 284 285 257 280 252 264 263 268 275 283 290 299 302 302 304 302 300 299
255 258 260 259 260 261 262 263 263 263 264 265 264 264 264 265 267 268 268 272 274 273 272 271 270 279 281 282 280 269 246 255 265 271 279 290 299 303 299 300 302 300 297 302
Height
5881 5884 5887 5886 5888 5890 5891 5893 5895 5896 5896 5897 5900 5902 5904 5904 5904 5905 5905 5906 5905 5904 5902 5901 5900 5898 5898 5898 5897 5897 5896 5895 5894 5891 5888 5887 5885 5884 5881 5879 5878 5875 5872 5869
5879 5881 5882 5882 5882 5886 5887 5888 5891 5892 5892 5892 5894 5896 5896 5900 5901 5901 5902 5902 5901 5899 5897 5897 5896 5894 5892 5892 5892 5891 5891 5890 5888 5885 5883 5881 5879 5877 5875 5873 5870 5867 5864 5862
5874 5877 5876 5878 5880 5881 5883 5886 5889 5889 5888 5889 5890 5891 5893 5896 5897 5895 5898 5898 5897 5896 5894 5892 5890 5888 5886 5886 5886 5886 5886 5885 5884 5880 5877 5876 5874 5871 5869 5866 5864 5861 5858 5855
5869 5870 5870 5872 5876 5878 5881 5884 5885 5884 5885 5886 5887 5887 5890 5891 5891 5891 5893 5894 5894 5893 5892 5890 5887 5885 5883 5883 5883 5882 5881 5881 5880 5877 5875 5871 5868 5866 5863 5860 5857 5854 5851 5849
5864 5865 5867 5871 5875 5874 5879 5878 5881 5881 5879 5879 5882 5880 5883 5885 5886 5888 5889 5891 5891 5889 5889 5888 5884 5881 5882 5879 5880 5879 5878 5877 5875 5871 5869 5866 5863 5860 5857 5853 5850 5848 5845 5842
5859 5861 5864 5867 5868 5869 5873 5875 5875 5875 5876 5873 5876 5875 5877 5880 5881 5881 5883 5884 5884 5885 5886 5885 5882 5876 5873 5875 5873 5872 5872 5872 5870 5866 5862 5859 5855 5853 5850 5847 5844 5841 5838 5834
5855 5858 5860 5862 5863 5864 5866 5869 5869 5870 5869 5870 5872 5870 5872 5874 5875 5875 5875 5876 5878 5879 5879 5878 5876 5871 5872 5869 5864 5862 5859 5863 5862 5859 5855 5851 5848 5845 5843 5840 5837 5834 5830 5826
5849 5853 5856 5857 5858 5860 5861 5863 5864 5863 5864 5865 5865 5864 5868 5870 5869 5869 5869 5869 5870 5872 5872 5872 5868 5866 5859 5857 5850 5844 5855 5857 5854 5851 5848 5845 5843 5840 5836 5832 5829 5826 5822 5817
5845 5848 5851 5852 5853 5855 5857 5858 5861 5859 5859 5859 5860 5860 5862 5863 5863 5864 5863 5863 5862 5864 5864 5863 5862 5861 5858 5858 5857 5850 5852 5851 5846 5843 5840 5837 5835 5832 5829 5825 5822 5818 5814 5810
5840 5844 5845 5846 5846 5849 5852 5855 5855 5854 5854 5853 5854 5855 5858 5858 5857 5857 5856 5855 5856 5857 5857 5857 5855 5854 5853 5852 5851 5847 5846 5841 5837 5834 5830 5828 5826 5823 5821 5817 5814 5810 5806 5802
5836 5837 5839 5838 5840 5843 5845 5846 5848 5848 5848 5846 5847 5849 5854 5852 5850 5849 5848 5849 5848 5848 5848 5848 5848 5847 5847 5847 5844 5840 5836 5834 5831 5826 5823 5820 5818 5816 5813 5809 5806 5802 5798 5793
5829 5829 5835 5834 5834 5835 5836 5838 5840 5840 5841 5840 5840 5842 5846 5844 5843 5842 5842 5841 5841 5841 5841 5842 5842 5841 5841 5840 5836 5833 5830 5829 5825 5820 5817 5814 5811 5807 5803 5799 5795 5792 5788 5784
5824 5823 5825 5830 5830 5829 5829 5830 5832 5833 5833 5832 5832 5835 5840 5839 5838 5837 5835 5834 5834 5834 5834 5835 5835 5835 5834 5833 5830 5827 5823 5820 5817 5814 5809 5806 5804 5799 5795 5791 5787 5784 5779 5774
5815 5817 5818 5820 5824 5824 5823 5824 5824 5825 5824 5825 5825 5829 5831 5831 5833 5831 5830 5829 5827 5826 5825 5825 5826 5825 5824 5823 5821 5817 5813 5811 5807 5804 5801 5797 5795 5790 5786 5782 5778 5774 5770 5765
5806 5805 5808 5811 5813 5815 5815 5816 5817 5816 5817 5817 5822 5820 5823 5824 5823 5821 5820 5820 5820 5819 5818 5817 5816 5815 5814 5812 5810 5806 5803 5800 5798 5794 5792 5788 5785 5781 5777 5773 5770 5766 5759 5754
5799 5797 5797 5799 5802 5803 5805 5805 5805 5807 5809 5810 5812 5811 5816 5813 5811 5812 5812 5811 5810 5811 5810 5809 5808 5806 5804 5802 5800 5797 5794 5791 5788 5785 5781 5778 5775 5772 5768 5764 5760 5754 5749 5745
5786 5788 5788 5788 5792 5792 5790 5795 5798 5799 5799 5801 5800 5803 5802 5804 5804 5803 5802 5801 5801 5801 5800 5799 5798 5796 5794 5792 5790 5787 5783 5780 5777 5774 5771 5768 5766 5763 5759 5755 5750 5746 5740 5734
5774 5777 5778 5776 5778 5775 5780 5785 5787 5788 5790 5791 5791 5790 5791 5790 5790 5791 5790 5790 5790 5789 5788 5788 5786 5786 5784 5781 5779 5777 5773 5770 5766 5763 5761 5759 5756 5753 5749 5744 5740 5736 5730 5725
5762 5764 5764 5763 5763 5765 5764 5768 5775 5776 5778 5780 5779 5782 5783 5780 5779 5779 5780 5778 5777 5776 5778 5777 5776 5774 5772 5770 5769 5766 5763 5759 5757 5754 5751 5749 5746 5742 5739 5735 5731 5725 5720 5713
5747 5750 5751 5750 5749 5748 5755 5761 5761 5759 5754 5767 5772 5771 5770 5770 5769 5771 5768 5766 5764 5764 5764 5763 5762 5761 5759 5757 5755 5753 5751 5748 5745 5743 5742 5740 5737 5734 5730 5726 5720 5714 5709 5704
5733 5735 5736 5738 5737 5738 5741 5743 5747 5747 5751 5752 5753 5755 5756 5757 5758 5758 5756 5754 5752 5750 5750 5748 5747 5747 5747 5745 5743 5742 5739 5736 5734 5733 5732 5731 5727 5724 5720 5715 5710 5706 5701 5696
5718 5722 5725 5727 5727 5726 5730 5729 5732 5733 5734 5737 5738 5739 5740 5743 5744 5745 5745 5742 5740 5739 5738 5738 5737 5736 5735 5734 5732 5729 5726 5724 5723 5723 5722 5719 5716 5714 5710 5707 5703 5697 5691 5686
5702 5709 5713 5715 5717 5716 5714 5716 5718 5719 5720 5721 5723 5723 5724 5726 5728 5729 5730 5729 5728 5727 5726 5725 5725 5723 5723 5722 5720 5717 5713 5712 5713 5712 5711 5708 5707 5705 5702 5698 5692 5687 5682 5677
5688 5692 5695 5700 5703 5703 5704 5704 5704 5705 5706 5707 5708 5708 5709 5712 5713 5714 5714 5715 5716 5715 5715 5713 5712 5712 5710 5709 5706 5709 5701 5702 5702 5702 5702 5701 5699 5697 5692 5687 5682 5677 5672 5669
5673 5676 5679 5683 5684 5685 5687 5688 5689 5690 5691 5691 5694 5696 5696 5697 5697 5700 5701 5701 5701 5701 5701 5701 5700 5700 5697 5697 5692 5694 5693 5692 5691 5691 5692 5692 5690 5685 5680 5676 5672 5668 5665 5662
5658 5661 5662 5664 5664 5664 5671 5674 5676 5677 5679 5680 5681 5681 5682 5683 5685 5686 5687 5688 5689 5690 5690 5690 5689 5688 5688 5687 5684 5680 5680 5681 5682 5682 5683 5681 5678 5673 5670 5666 5663 5660 5658 5655